When you browse on this site, cookies collect data to enhance your experience and personalize the content and advertising you see.
Visit our Privacy Policy to learn more. By continuing to use the site, you agree to this use of cookies and data.
  • In Hungary
  • List of Countries
  • For 7 days
  • Water Temperature
  • Weather Map
  • News
  • Weather Widgets
  • user-avatar
    Login

    Hourly Weather Korenki

    Today, 22 January, Wednesday

    Time Temperature Precipitation Wind Pressure Humidity
    00:00 0°C° 0.6 mm 8 mps 737 mmHg 96%
    01:00 -1°C° 0.1 mm 8 mps 738 mmHg 91%
    02:00 -1°C° 0.1 mm 8 mps 738 mmHg 87%
    03:00 -3°C° 0.1 mm 9 mps 738 mmHg 82%
    04:00 -2°C° 0 mm 8 mps 738 mmHg 82%
    05:00 -3°C° 0 mm 7 mps 738 mmHg 83%
    06:00 -4°C° 0 mm 6 mps 738 mmHg 83%
    07:00 -4°C° 0 mm 6 mps 738 mmHg 84%
    08:00 -4°C° 0 mm 6 mps 738 mmHg 84%
    09:00 -4°C° 0 mm 6 mps 738 mmHg 85%
    10:00 -3°C° 0 mm 6 mps 737 mmHg 84%
    11:00 -3°C° 0 mm 6 mps 737 mmHg 83%
    12:00 -3°C° 0 mm 6 mps 737 mmHg 81%
    13:00 -3°C° 0 mm 6 mps 736 mmHg 82%
    14:00 -2°C° 0 mm 5 mps 736 mmHg 82%
    15:00 -2°C° 0 mm 5 mps 735 mmHg 82%
    16:00 -2°C° 0 mm 5 mps 735 mmHg 83%
    17:00 -2°C° 0 mm 5 mps 735 mmHg 84%
    18:00 -4°C° 0 mm 5 mps 735 mmHg 85%
    19:00 -3°C° 0 mm 4 mps 735 mmHg 85%
    20:00 -3°C° 0 mm 4 mps 735 mmHg 85%
    21:00 -4°C° 0 mm 4 mps 735 mmHg 85%
    22:00 -4°C° 0 mm 4 mps 735 mmHg 84%
    23:00 -5°C° 0 mm 5 mps 736 mmHg 84%

    Tomorrow, 23 January, Thursday

    Time Temperature Precipitation Wind Pressure Humidity
    00:00 -6°C° 0 mm 5 mps 736 mmHg 83%
    01:00 -6°C° 0 mm 5 mps 736 mmHg 84%
    02:00 -6°C° 0 mm 5 mps 737 mmHg 84%
    03:00 -6°C° 0 mm 5 mps 737 mmHg 85%
    04:00 -6°C° 0 mm 5 mps 738 mmHg 85%
    05:00 -6°C° 0 mm 5 mps 738 mmHg 86%
    06:00 -6°C° 0 mm 5 mps 738 mmHg 86%
    07:00 -6°C° 0.1 mm 6 mps 738 mmHg 84%
    08:00 -6°C° 0.1 mm 6 mps 739 mmHg 82%
    09:00 -6°C° 0.1 mm 6 mps 740 mmHg 79%
    10:00 -6°C° 0.1 mm 6 mps 740 mmHg 79%
    11:00 -8°C° 0.1 mm 6 mps 741 mmHg 78%
    12:00 -8°C° 0.1 mm 6 mps 742 mmHg 77%
    13:00 -8°C° 0.1 mm 6 mps 742 mmHg 74%
    14:00 -9°C° 0.1 mm 7 mps 743 mmHg 71%
    15:00 -9°C° 0.1 mm 7 mps 744 mmHg 67%
    16:00 -11°C° 0 mm 7 mps 744 mmHg 70%
    17:00 -10°C° 0 mm 6 mps 745 mmHg 72%
    18:00 -10°C° 0 mm 6 mps 745 mmHg 74%
    19:00 -11°C° 0 mm 5 mps 746 mmHg 76%
    20:00 -10°C° 0 mm 4 mps 746 mmHg 77%
    21:00 -9°C° 0 mm 3 mps 747 mmHg 79%
    22:00 -9°C° 0 mm 3 mps 747 mmHg 80%
    23:00 -9°C° 0 mm 3 mps 748 mmHg 81%

    Day after tomorrow, 24 January, Friday

    Time Temperature Precipitation Wind Pressure Humidity
    00:00 -9°C° 0 mm 3 mps 748 mmHg 82%
    01:00 -9°C° 0 mm 3 mps 749 mmHg 82%
    02:00 -11°C° 0 mm 4 mps 749 mmHg 82%
    03:00 -11°C° 0 mm 4 mps 749 mmHg 82%
    04:00 -11°C° 0 mm 4 mps 749 mmHg 84%
    05:00 -11°C° 0 mm 4 mps 749 mmHg 86%
    06:00 -11°C° 0 mm 4 mps 749 mmHg 88%
    07:00 -10°C° 0 mm 4 mps 749 mmHg 87%
    08:00 -10°C° 0 mm 4 mps 749 mmHg 86%
    09:00 -11°C° 0 mm 5 mps 749 mmHg 85%
    10:00 -10°C° 0 mm 5 mps 748 mmHg 85%
    11:00 -9°C° 0 mm 6 mps 748 mmHg 86%
    12:00 -8°C° 0 mm 6 mps 747 mmHg 86%
    13:00 -7°C° 0.1 mm 7 mps 746 mmHg 88%
    14:00 -7°C° 0.1 mm 7 mps 746 mmHg 90%
    15:00 -6°C° 0.1 mm 7 mps 745 mmHg 92%
    16:00 -6°C° 0.2 mm 7 mps 745 mmHg 92%
    17:00 -6°C° 0.2 mm 7 mps 744 mmHg 92%
    18:00 -4°C° 0.2 mm 6 mps 744 mmHg 92%
    19:00 -4°C° 0.1 mm 6 mps 744 mmHg 93%
    20:00 -4°C° 0.1 mm 6 mps 744 mmHg 94%
    21:00 -3°C° 0.1 mm 6 mps 743 mmHg 95%
    22:00 -3°C° 0.6 mm 6 mps 743 mmHg 96%
    23:00 -2°C° 0.6 mm 6 mps 743 mmHg 97%

    25 January, Saturday

    Time Temperature Precipitation Wind Pressure Humidity
    00:00 -1°C° 0.6 mm 6 mps 743 mmHg 97%
    01:00 -1°C° 0.2 mm 6 mps 742 mmHg 97%
    02:00 -1°C° 0.2 mm 6 mps 742 mmHg 96%
    03:00 -1°C° 0.2 mm 6 mps 742 mmHg 96%
    04:00 0°C° 0 mm 5 mps 742 mmHg 96%
    05:00 0°C° 0 mm 5 mps 742 mmHg 96%
    06:00 0°C° 0 mm 5 mps 742 mmHg 96%
    07:00 0°C° 0.1 mm 4 mps 742 mmHg 97%
    08:00 0°C° 0.1 mm 4 mps 742 mmHg 97%
    09:00 0°C° 0.1 mm 4 mps 742 mmHg 97%
    10:00 0°C° 0.1 mm 4 mps 742 mmHg 97%
    11:00 0°C° 0.1 mm 5 mps 742 mmHg 96%
    12:00 0°C° 0.1 mm 5 mps 742 mmHg 96%
    13:00 0°C° 0.2 mm 5 mps 742 mmHg 96%
    14:00 0°C° 0.2 mm 5 mps 742 mmHg 96%
    15:00 -1°C° 0.2 mm 6 mps 742 mmHg 95%
    16:00 0°C° 0.1 mm 5 mps 742 mmHg 95%
    17:00 0°C° 0.1 mm 5 mps 742 mmHg 95%
    18:00 0°C° 0.1 mm 5 mps 742 mmHg 95%
    19:00 -1°C° 0.1 mm 6 mps 742 mmHg 93%
    20:00 -2°C° 0.1 mm 6 mps 742 mmHg 91%
    21:00 -2°C° 0.1 mm 6 mps 742 mmHg 89%
    22:00 -2°C° 0 mm 6 mps 742 mmHg 87%
    23:00 -2°C° 0 mm 7 mps 742 mmHg 85%

    26 January, Sunday

    Time Temperature Precipitation Wind Pressure Humidity
    00:00 -2°C° 0 mm 8 mps 742 mmHg 83%
    01:00 -2°C° 0 mm 8 mps 742 mmHg 83%
    02:00 -2°C° 0 mm 8 mps 742 mmHg 84%
    03:00 -3°C° 0 mm 7 mps 742 mmHg 84%
    04:00 -3°C° 0 mm 7 mps 742 mmHg 83%
    05:00 -3°C° 0 mm 7 mps 743 mmHg 81%
    06:00 -3°C° 0 mm 7 mps 743 mmHg 80%
    07:00 -3°C° 0 mm 7 mps 744 mmHg 78%
    08:00 -4°C° 0 mm 7 mps 744 mmHg 76%
    09:00 -4°C° 0 mm 7 mps 745 mmHg 75%
    10:00 -4°C° 0 mm 7 mps 746 mmHg 72%
    11:00 -4°C° 0 mm 7 mps 746 mmHg 70%
    12:00 -3°C° 0 mm 7 mps 747 mmHg 68%
    13:00 -3°C° 0 mm 7 mps 747 mmHg 69%
    14:00 -3°C° 0 mm 7 mps 748 mmHg 69%
    15:00 -3°C° 0 mm 7 mps 748 mmHg 70%
    16:00 -4°C° 0 mm 6 mps 749 mmHg 72%
    17:00 -4°C° 0 mm 5 mps 750 mmHg 75%
    18:00 -5°C° 0 mm 5 mps 751 mmHg 77%
    19:00 -4°C° 0 mm 4 mps 751 mmHg 78%
    20:00 -4°C° 0 mm 4 mps 752 mmHg 80%
    21:00 -4°C° 0 mm 3 mps 752 mmHg 81%
    22:00 -5°C° 0 mm 3 mps 753 mmHg 82%
    23:00 -5°C° 0 mm 3 mps 753 mmHg 84%

    27 January, Monday

    Time Temperature Precipitation Wind Pressure Humidity
    00:00 -5°C° 0 mm 3 mps 754 mmHg 85%
    01:00 -5°C° 0 mm 3 mps 754 mmHg 85%
    02:00 -5°C° 0 mm 3 mps 754 mmHg 85%
    03:00 -5°C° 0 mm 3 mps 754 mmHg 86%
    04:00 -5°C° 0 mm 3 mps 755 mmHg 85%
    05:00 -5°C° 0 mm 3 mps 755 mmHg 85%
    06:00 -5°C° 0 mm 3 mps 755 mmHg 85%
    07:00 -5°C° 0 mm 3 mps 755 mmHg 84%
    08:00 -5°C° 0 mm 3 mps 755 mmHg 84%
    09:00 -5°C° 0 mm 4 mps 755 mmHg 84%
    10:00 -4°C° 0 mm 4 mps 755 mmHg 82%
    11:00 -3°C° 0 mm 4 mps 755 mmHg 79%
    12:00 -4°C° 0 mm 5 mps 755 mmHg 77%
    13:00 -4°C° 0 mm 5 mps 755 mmHg 79%
    14:00 -2°C° 0 mm 4 mps 754 mmHg 81%
    15:00 -2°C° 0 mm 4 mps 754 mmHg 82%
    16:00 -4°C° 0 mm 5 mps 754 mmHg 84%
    17:00 -4°C° 0 mm 5 mps 754 mmHg 86%
    18:00 -4°C° 0 mm 5 mps 753 mmHg 88%
    19:00 -4°C° 0 mm 5 mps 753 mmHg 88%
    20:00 -4°C° 0 mm 5 mps 753 mmHg 87%
    21:00 -4°C° 0 mm 5 mps 753 mmHg 87%
    22:00 -4°C° 0 mm 5 mps 753 mmHg 88%
    23:00 -4°C° 0 mm 5 mps 752 mmHg 89%
    Show more